Regional Weather Roundup
Issued by NWS

Home | Current Version | Previous Version | Text Only | Print | Product List | Glossary On
Versions: 1 2 3 4 5 6 7 8 9 10 11 12 13 14 15 16 17 18 19 20 21 22 23 24 25 26 27 28 29 30 31 32 33 34 35 36 37 38 39 40 41 42 43 44 45 46 47 48 49 50
000
ASUS46 KSEW 190410
RWRWA

WASHINGTON REGIONAL WEATHER ROUNDUP
NATIONAL WEATHER SERVICE SEATTLE WA
900 PM PDT THU SEP 18 2014

NOTE:"FAIR" INDICATES FEW OR NO CLOUDS BELOW 12,000 FEET WITH NO
SIGNIFICANT WEATHER AND/OR OBSTRUCTIONS TO VISIBILITY.

WAZ505-507>509-190500-
SEATTLE, TACOMA, EVERETT, AND VICINITY

CITY           SKY/WX    TMP DP  RH WIND       PRES   REMARKS
EVERETT        CLOUDY    60  57  89 S12       29.93R
BOEING FIELD   CLOUDY    66  56  70 S8G16     29.92R
RENTON         CLOUDY    66  58  75 S8        29.92R
SEATAC AIRPORT CLOUDY    64  56  75 SW9       29.94R
JBLM-MCCHORD   CLOUDY    64  57  79 S8        29.94R
PUYALLUP       NOT AVBL
JBLM-FT LEWIS  CLOUDY    63  57  80 SE8       29.94R
TACOMA NARROWS CLOUDY    64  56  75 SW6       29.94R
$$

WAZ001-503-506-510-514-515-190500-
NORTH INTERIOR

CITY           SKY/WX    TMP DP  RH WIND       PRES   REMARKS
BELLINGHAM     CLOUDY    63  59  88 S6        29.92R
FRIDAY HARBOR  CLOUDY    59  57  93 CALM      29.93R
EASTSOUND      CLOUDY    61  59  94 S8        29.90R
PORT ANGELES     N/A     60  58  92 CALM      29.93R
NAS WHIDBEY    CLOUDY    60  57  89 NW6       29.93R
BURLINGTON     CLOUDY    63  61  94 CALM      29.92R
$$

WAZ020-022-039-040-504-511-512-190500-
SOUTHWEST INTERIOR

CITY           SKY/WX    TMP DP  RH WIND       PRES   REMARKS
SHELTON        CLOUDY    62  58  86 SW12      29.92R
OLYMPIA        CLOUDY    64  57  78 SW9       29.94R
CHEHALIS       CLOUDY    64  61  88 S5        29.95R
KELSO          CLOUDY    64  55  72 CALM      30.00R
VANCOUVER      MOCLDY    69  57  65 N3        29.95R
SCAPPOOSE, OR  CLOUDY    65  61  87 CALM      29.95R
PORTLAND, OR   CLOUDY    69  59  70 N6        29.95R
$$

WAZ021-516-517-190500-
WASHINGTON COAST

CITY           SKY/WX    TMP DP  RH WIND       PRES   REMARKS
FORKS          CLOUDY    60  60 100 CALM      29.94R FOG
HOQUIAM        CLOUDY    62  61  96 S5        29.96R
ASTORIA, OR    CLOUDY    63  59  87 CALM      29.96R
$$

WAZ019-023-024-040-518-519-190500-
CASCADE MOUNTAINS AND COLUMBIA GORGE

CITY           SKY/WX    TMP DP  RH WIND       PRES   REMARKS
STAMPEDE PASS  NOT AVBL
TROUTDALE, OR  CLOUDY    68  60  75 CALM      29.94R
THE DALLES, OR PTCLDY    68  54  60 W9        29.90R
$$

WAZ026-027-041>044-520-521-190500-
EAST SLOPES

CITY           SKY/WX    TMP DP  RH WIND       PRES   REMARKS
OMAK           MOCLDY    65  50  58 NW5       29.75S
WENATCHEE      MOCLDY    70  47  43 W5        29.82R
ELLENSBURG     MOCLDY    63  51  65 NW21G26   29.87R
YAKIMA         PTCLDY    68  50  52 NW9       29.87R
$$

WAZ028-034-035-190500-
COLUMBIA BASIN

CITY           SKY/WX    TMP DP  RH WIND       PRES   REMARKS
EPHRATA        MOCLDY    72  44  36 NW9G17    29.77R
MOSES LAKE     PTCLDY    70  47  43 W14       29.79R
PASCO          CLOUDY    72  51  47 W3        29.83R
HERMISTON, OR  PTCLDY    68  52  56 SW14      29.87R
$$

WAZ036>038-190500-
NORTHEAST WASHINGTON

CITY           SKY/WX    TMP DP  RH WIND       PRES   REMARKS
SPOKANE GEIGER CLOUDY    69  46  43 SW12      29.81R
SPOKANE FELTS  CLOUDY    72  46  39 W8        29.80R
FAIRCHILD AFB  MOCLDY    66  47  49 SW9       29.82R
COEURDALENE,ID CLOUDY    70  48  46 W14G21    29.80S
DEER PARK      CLOUDY    70  47  43 SW10      29.79R
$$

WAZ029>033-190500-
SOUTHEAST WASHINGTON

CITY           SKY/WX    TMP DP  RH WIND       PRES   REMARKS
PULLMAN        CLOUDY    68  49  50 SW17G23   29.89R
LEWISTON, ID   CLOUDY    74  50  42 NW15      29.82R
WALLA WALLA    CLOUDY    70  50  49 SW16      29.89R
PENDLETON, OR  CLOUDY    67  49  52 W23       29.89R
$$



USA.gov is the U.S. government's official web portal to all federal, state and local government web resources and services.